TimeEDT,TemperatureF,Dew PointF,Humidity,Sea Level PressureIn,VisibilityMPH,Wind Direction,Wind SpeedMPH,Gust SpeedMPH,PrecipitationIn,Events,Conditions,WindDirDegrees,DateUTC
12:53 AM,77.0,72.0,84,30.12,10.0,ENE,10.4,-,N/A,,Mostly Cloudy,60,2013-04-17 04:53:00
1:30 AM,75.2,71.6,89,30.10,10.0,ENE,10.4,-,N/A,,Scattered Clouds,60,2013-04-17 05:30:00
1:41 AM,75.2,71.6,89,30.09,10.0,ENE,10.4,-,N/A,,Mostly Cloudy,60,2013-04-17 05:41:00
1:50 AM,75.2,71.6,89,30.09,10.0,ENE,9.2,-,N/A,,Scattered Clouds,60,2013-04-17 05:50:00
1:53 AM,75.9,72.0,87,30.09,10.0,ENE,9.2,-,N/A,,Scattered Clouds,60,2013-04-17 05:53:00
2:44 AM,75.2,71.6,89,30.07,10.0,ENE,9.2,-,N/A,,Mostly Cloudy,60,2013-04-17 06:44:00
2:53 AM,75.9,72.0,87,30.08,10.0,ENE,8.1,-,N/A,,Mostly Cloudy,60,2013-04-17 06:53:00
3:53 AM,75.9,72.0,87,30.07,10.0,NE,9.2,-,N/A,,Overcast,50,2013-04-17 07:53:00
4:53 AM,75.9,71.1,85,30.07,10.0,NE,8.1,-,N/A,,Mostly Cloudy,40,2013-04-17 08:53:00
5:05 AM,75.2,71.6,89,30.06,10.0,NE,10.4,-,N/A,,Scattered Clouds,40,2013-04-17 09:05:00
5:28 AM,75.2,71.6,89,30.06,10.0,NE,8.1,-,N/A,,Mostly Cloudy,50,2013-04-17 09:28:00
5:37 AM,75.2,71.6,89,30.06,10.0,NE,8.1,-,N/A,,Mostly Cloudy,50,2013-04-17 09:37:00
5:53 AM,75.9,72.0,87,30.06,10.0,NE,8.1,-,N/A,,Scattered Clouds,50,2013-04-17 09:53:00
6:35 AM,75.2,71.6,89,30.07,10.0,ENE,6.9,-,N/A,,Mostly Cloudy,70,2013-04-17 10:35:00
6:53 AM,75.9,71.1,85,30.08,10.0,ENE,6.9,-,N/A,,Mostly Cloudy,60,2013-04-17 10:53:00
7:44 AM,75.2,71.6,89,30.10,10.0,NE,10.4,-,N/A,,Overcast,50,2013-04-17 11:44:00
7:53 AM,75.9,71.1,85,30.10,10.0,NE,8.1,-,N/A,,Mostly Cloudy,50,2013-04-17 11:53:00
8:53 AM,78.1,71.1,79,30.11,10.0,NE,13.8,-,N/A,,Partly Cloudy,50,2013-04-17 12:53:00
10:53 AM,80.1,69.1,69,30.12,10.0,NE,15.0,-,N/A,,Scattered Clouds,50,2013-04-17 14:53:00
11:53 AM,81.0,69.1,67,30.11,10.0,ENE,11.5,-,N/A,,Scattered Clouds,60,2013-04-17 15:53:00
12:53 PM,81.0,68.0,65,30.09,10.0,NE,17.3,-,N/A,,Scattered Clouds,40,2013-04-17 16:53:00
1:53 PM,81.0,68.0,65,30.08,10.0,ENE,15.0,-,N/A,,Scattered Clouds,60,2013-04-17 17:53:00
2:53 PM,82.0,68.0,62,30.06,10.0,NE,15.0,-,N/A,,Scattered Clouds,50,2013-04-17 18:53:00
3:53 PM,82.0,66.9,60,30.04,10.0,ENE,13.8,-,N/A,,Scattered Clouds,70,2013-04-17 19:53:00
4:53 PM,81.0,68.0,65,30.04,10.0,NE,11.5,-,N/A,,Scattered Clouds,50,2013-04-17 20:53:00
5:53 PM,79.0,68.0,69,30.04,10.0,NE,12.7,-,N/A,,Scattered Clouds,50,2013-04-17 21:53:00
6:53 PM,78.1,68.0,71,30.05,10.0,ENE,8.1,-,N/A,,Scattered Clouds,60,2013-04-17 22:53:00
7:53 PM,77.0,68.0,74,30.06,10.0,NE,8.1,-,N/A,,Scattered Clouds,50,2013-04-17 23:53:00
8:53 PM,77.0,68.0,74,30.07,10.0,ENE,6.9,-,N/A,,Clear,60,2013-04-18 00:53:00
9:53 PM,75.9,68.0,76,30.08,10.0,ENE,8.1,-,N/A,,Clear,60,2013-04-18 01:53:00
10:53 PM,77.0,68.0,74,30.07,10.0,ENE,9.2,-,N/A,,Mostly Cloudy,60,2013-04-18 02:53:00
11:53 PM,75.9,69.1,79,30.06,10.0,ENE,8.1,-,N/A,,Clear,70,2013-04-18 03:53:00